Kaltag, AK

7:33 PM AKST on November 19, 2017 (GMT -0900)
Kaltag

Weather History for PAKV - December, 2012

Change the Weather History Date:

Tuesday, December 18, 2012

  Actual Average (PAGA) Record (PAGA)
Temperature  
Mean Temperature -22 °F -  
Max Temperature -11 °F 9 °F 37 °F (1970)
Min Temperature -34 °F -6 °F -48 °F (1965)
Degree Days  
Heating Degree Days 88    
Moisture  
Dew Point -26 °F    
Average Humidity 75    
Maximum Humidity 84    
Minimum Humidity 66    
Precipitation  
Precipitation 0.00 in - - ()
Sea Level Pressure  
Sea Level Pressure 29.77 in    
Wind  
Wind Speed 2 mph (SW)    
Max Wind Speed 6 mph    
Max Gust Speed -    
Visibility 8 miles    
Events      
Averages and records for this station are not official NWS values.
T = Trace of Precipitation, MM = Missing Value Source: NWS Daily Summary

Daily Weather History Graph

Daily Weather History Graph

Search for Another Location

Airport or City:

Trip Planner

Search our weather history database for the weather conditions in past years. The results will help you decide how hot, cold, wet, or windy it might be!

Date:

Astronomy

Dec. 18, 2012 Rise Set
Actual Time 11:30 AM AKST 3:32 PM AKST
Civil Twilight 10:10 AM AKST 4:53 PM AKST
Nautical Twilight 9:00 AM AKST 6:03 PM AKST
Astronomical Twilight 8:00 AM AKST 7:03 PM AKST
Moon 12:51 PM AKST (12/18) No Moon Set
Length of Visible Light 6h 43m
Length of Day
4h 02m
Waxing Crescent, 36% of the Moon is Illuminated
Dec 18
Waxing Crescent
Dec 19
First Quarter
Dec 28
Full
Jan 4
Last Quarter
Jan 11
New

Hourly Weather History & Observations

Time (AKST) Temp. Windchill Dew Point Humidity Pressure Visibility Wind Dir Wind Speed Gust Speed Precip Events Conditions
12:53 AM -11.9 °F - -17.0 °F 78% 29.49 in 10.0 mi Calm Calm - N/A   Overcast
1:53 AM -18.0 °F - -22.0 °F 82% 29.49 in 10.0 mi Calm Calm - N/A   Partly Cloudy
3:53 AM -20.9 °F -31.7 °F -25.1 °F 81% 29.53 in 10.0 mi SW 3.5 mph - N/A   Mostly Cloudy
4:53 AM -22.0 °F -35.6 °F -27.0 °F 77% 29.53 in 10.0 mi SW 4.6 mph - N/A   Mostly Cloudy
5:53 AM -23.1 °F -34.2 °F -27.9 °F 78% 29.55 in 10.0 mi WSW 3.5 mph - N/A   Mostly Cloudy
6:53 AM -20.9 °F - -27.0 °F 73% 29.57 in 10.0 mi Calm Calm - N/A   Overcast
7:53 AM -17.0 °F -27.2 °F -24.0 °F 70% 29.60 in 10.0 mi SW 3.5 mph - N/A   Overcast
8:53 AM -17.0 °F -27.2 °F -23.1 °F 74% 29.62 in 10.0 mi SW 3.5 mph - N/A   Overcast
9:53 AM -18.9 °F -32.0 °F -24.0 °F 78% 29.66 in 10.0 mi SW 4.6 mph - N/A   Mostly Cloudy
10:53 AM -18.9 °F -34.0 °F -25.1 °F 74% 29.69 in 7.0 mi SW 5.8 mph - N/A   Overcast
11:42 AM -16.6 °F -26.8 °F -20.2 °F 84% 29.68 in 1.8 mi SW 3.5 mph - N/A   Haze
11:53 AM -16.1 °F -26.2 °F -22.0 °F 74% 29.71 in 2.5 mi SSW 3.5 mph - N/A   Haze
12:00 PM -18.4 °F -31.4 °F -23.8 °F 76% 29.69 in 6.0 mi WSW 4.6 mph - N/A   Haze
12:53 PM -20.0 °F -30.7 °F -24.0 °F 82% 29.75 in 5.0 mi SW 3.5 mph - N/A   Mostly Cloudy
1:53 PM -20.9 °F -31.7 °F -27.9 °F 70% 29.78 in 9.0 mi WSW 3.5 mph - N/A   Clear
2:53 PM -25.1 °F - -32.1 °F 70% 29.82 in 5.0 mi Calm Calm - N/A   Haze
3:53 PM -22.0 °F - -27.0 °F 77% 29.85 in 9.0 mi Calm Calm - N/A   Partly Cloudy
4:53 PM -27.9 °F - -35.0 °F 69% 29.88 in 10.0 mi Calm Calm - N/A   Clear
5:53 PM -27.0 °F - -35.0 °F 66% 29.93 in 8.0 mi Calm Calm - N/A   Clear
6:53 PM -31.0 °F - - N/A% 29.97 in 8.0 mi Calm Calm - N/A   Clear
7:53 PM -26.0 °F - -31.0 °F 77% 30.00 in 9.0 mi Calm Calm - N/A   Clear
8:53 PM -23.1 °F - -31.0 °F 67% 30.03 in 9.0 mi Calm Calm - N/A   Clear
9:53 PM -32.1 °F - - N/A% 30.07 in 10.0 mi Calm Calm - N/A   Clear
10:53 PM -34.1 °F - - N/A% 30.11 in 10.0 mi Calm Calm - N/A   Clear
11:53 PM -31.0 °F -43.3 °F - N/A% 30.14 in 10.0 mi SW 3.5 mph - N/A   Clear